OPS 4682 DEB, 38373

Orbit data source: Space-Track

OPS 4682 DEB, 38373 is space debris in LEO originally from a launch on Sat, 03 Apr 1965 UTC launched from the Air Force Western Test Range (AFWTR). Debris objects in space refer to the collection of defunct objects orbiting the Earth. Examples of debris include non-operational satellites, rocket bodies, and fragments generated from explosions, collisions, or faulty payload assembly.

Loading next visibility...
Identifier
38373, 1965-027CA
Orbit
LEO
Country
Flag of USUS
Related business
Manufacturer
Unknown
Mission
Spacecraft
Bus & Motor
Unknown
Mass
Unknown
Launch date (UTC)
1965-04-03 (61 years ago)
Launch vehicle
Unknown
Launch site
Air Force Western Test Range (AFWTR)
Object type
Payload
Rocket body
Debris
Shape & HBR
Unknown shape, 0.1 m
Radar Cross Section
Small (<0.1 m²)

Expand to show TLE details & history
Last TLE update: 3 days ago

TLE from 3 days ago
0 OPS 4682 DEB
1 38373U 65027CA  26101.09207304  .00000999  00000-0  32424-2 0  9993
2 38373  90.2751  28.8074 0032807   6.3251 353.8279 13.01027973608314
Epoch: 2026-04-11T02:12Z
TLE epoch observation values (Epoch: 2026-04-11T02:12:35.110Z)
Latitude
-0.00007°
Longitude
156.34476°
Altitude
1,236.036 km
Speed
7.248 km/s
True Right ascension
01h 55m 13s
True Declination
0° 00' 00"
Sunlit
Object was in daylight at epoch
Visualization orbit readout
Latitude
Unknown
Longitude
Unknown
Altitude
Unknown
Speed
Unknown
Apparent Right ascension
Unknown
Apparent Declination
Unknown
Sunlit
N/A
Visualization observer readout
Local Sidereal Time
15:50:43
Azimuth
Unknown
Elevation
Unknown
Doppler factor
Unknown
Orbital elements
Apogee altitude
1,280.23 km
Perigee altitude
1,230.144 km
Semi-major axis
7,633.324 km
Eccentricity
0.00328
Inclination
90.2751°
RAAN
28.8074°
Arg. of periapsis
6.3251°
True anomaly
353.78732°
Mean anomaly
353.8279°
Eccentric anomaly
353.80762°
Mean motion
3.25441 °/min
Orbital period
110.62 mins
BSTAR
0.0032424
Loading maneuver chart data...
Computing Atmospheric mass density...
Loading historical data...
Loading historical data...
Loading historical data...
Loading historical data...
Loading historical data...
Loading historical data...
Loading historical data...

Documentation

Showing up to 5 results
|